Regional Weather Roundup
Issued by NWS Sterling, VA

Home | Current Version | Previous Version | Graphics & Text | Print | Product List | Glossary On
Versions: 1 2 3 4 5 6 7 8 9 10 11 12 13 14 15 16 17 18 19 20 21 22 23 24 25 26 27 28 29 30 31 32 33 34 35 36 37 38 39 40 41 42 43 44 45 46 47 48 49 50
993
ASUS41 KLWX 192110
RWRLWX

REGIONAL WEATHER ROUNDUP
NATIONAL WEATHER SERVICE BALTIMORE MD/WASHINGTON DC
500 PM EDT THU OCT 19 2017

Note: "FAIR" indicates few or no clouds below 12,000 feet
with no significant weather and/or obstructions to visibility.
 TC=TEMPERATURE CELSIUS

 * =Non NWS site. Station does not report precipitation (e.g. rain,
    snow, etc.), thunder, or fog.

DCZ001-MDZ009-015-VAZ040>042-051-053>054-192200-
WASHINGTON METRO

CITY           SKY/WX    TMP DP  RH WIND       PRES   REMARKS
WASHINGTON NAT MOSUNNY   71  51  49 S9        30.16F
DULLES         MOSUNNY   73  45  36 S6        30.15F
ANDREWS AFB    SUNNY     70  46  42 S7        30.15F
FT BELVOIR     SUNNY     72  47  42 S3        30.15F
COLLEGE PARK*  SUNNY     71  46  40 S3        30.15F
LEESBURG*      SUNNY     73  48  40 S6        30.15F
MANASSAS*      SUNNY     74  47  38 S7        30.15F
GAITHERSBURG*  SUNNY     72  46  39 SW6       30.16F

$$

MDZ006>007-011-014-192200-
BALTIMORE METRO

CITY           SKY/WX    TMP DP  RH WIND       PRES   REMARKS
BWI AIRPORT    MOSUNNY   72  46  39 SW5       30.14F
MARTIN STATE   MOSUNNY   70  57  64 SE9       30.16F
FORT MEADE*    SUNNY     68  48  49 SW6       30.17F

$$

MDZ012-015-019>023-192200-
MARYLAND EASTERN SHORE

CITY           SKY/WX    TMP DP  RH WIND       PRES   REMARKS
OCEAN CITY     SUNNY     68  58  70 SW8       30.17F
SALISBURY      SUNNY     68  50  52 W8        30.17F
CAMBRIDGE*     SUNNY     68  50  52 SW5       30.17F
EASTON*        SUNNY     70  46  43 SW8       30.20F

$$

MDZ017>025-192200-
SOUTHERN MARYLAND

CITY           SKY/WX    TMP DP  RH WIND       PRES   REMARKS
PATUXENT RIVER MOSUNNY   71  48  43 SW5       30.16F
ST INIGOES     SUNNY     71  50  47 SE3       30.16F
LEONARDTOWN*   NOT AVBL

$$

MDZ003>005-192200-
NORTH CENTRAL MARYLAND

CITY           SKY/WX    TMP DP  RH WIND       PRES   REMARKS
FREDERICK*     SUNNY     75  41  29 S9        30.17F
HAGERSTOWN APT SUNNY     74  45  35 S10       30.13F
WESTMINSTER*   SUNNY     72  46  40 SW8       30.15S

$$

MDZ501>502-192200-
WESTERN MARYLAND

CITY           SKY/WX    TMP DP  RH WIND       PRES   REMARKS
OAKLAND*       SUNNY     61  36  39 W5        30.19S
CUMBERLAND*    SUNNY     77  37  24 SW7       30.17F

$$

VAZ025>031-192200-
SHENANDOAH VALLEY

CITY           SKY/WX    TMP DP  RH WIND       PRES   REMARKS
WINCHESTER*    SUNNY     72  45  37 SW3       30.14F
FRONT ROYAL*   SUNNY     75  39  27 SW5       30.13F
LURAY*         SUNNY     77  36  22 S6        30.15F
NEW MARKET*    SUNNY     76  37  24 CALM      30.14F
STAUNTON*      SUNNY     74  42  31 S6        30.19F
WAYNESBORO*    SUNNY     72  40  32 SW5       30.19F

$$

WVZ021-048>050-054>055-192200-
EASTERN WEST VIRGINIA PANHANDLE

CITY           SKY/WX    TMP DP  RH WIND       PRES   REMARKS
MARTINSBURG    SUNNY     74  45  35 S5        30.13F
PETERSBURG*    SUNNY     76  38  25 W5        30.14F

$$

VAZ036>039-050-192200-
CENTRAL FOOTHILLS

CITY           SKY/WX    TMP DP  RH WIND       PRES   REMARKS
CHARLOTTESVILL SUNNY     75  44  33 S8        30.16F
CULPEPER*      SUNNY     76  40  27 S6        30.16F
ORANGE*        SUNNY     73  43  33 SW7       30.16F
GORDONSVILLE*  SUNNY     74  45  35 S6        30.16F
WARRENTON*     SUNNY     75  39  26 SW6       30.15F

$$

VAZ055>057-192200-
NORTH AND CENTRAL PIEDMONT

CITY           SKY/WX    TMP DP  RH WIND       PRES   REMARKS
FREDERICKSBRG* SUNNY     75  48  38 S5        30.15F
STAFFORD*      SUNNY     73  43  33 S6        30.19F

$$

NCZ024-NYZ072-PAZ021-071-VAZ022-071-192200-
OTHER REGIONAL OBSERVATIONS

CITY           SKY/WX    TMP DP  RH WIND       PRES   REMARKS
NEW YORK CITY  SUNNY     69  41  36 W9        30.11F
PHILADELPHIA   MOSUNNY   71  44  37 SW12      30.13F
PITTSBURGH     CLOUDY    70  45  40 SW10G20   30.15F
ROANOKE        SUNNY     75  43  31 CALM      30.22F
RICHMOND       MOSUNNY   73  43  33 SW7       30.17F
RALEIGH        MOSUNNY   75  46  35 W3        30.21F

$$

ANZ530>537-192200-
MARINE OBSERVATIONS

STATION/POSITION TIME  TEMP    WIND        PRES
                       AIR SEA DIR/SP/G
                 (UTC) (F)     (DEG/KT/KT) (MB)
THOMAS PT LIGHT  2100   68 68  170/ 14/ 15   N/A
BALT KEY BRIDGE  2042   68     160/  9/ 11 1020.5F
COVE POINT       2042   69     210/  7/  8 1022.2F
LEWISETTA        2042   71 66  260/  6/  7 1021.4F
SOLOMONS ISLAND  2042   71 69  240/  9/ 11 1021.1F
PINEY POINT      2042          120/  3/  4   N/A

$$





USA.gov is the U.S. government's official web portal to all federal, state and local government web resources and services.